Tracking 28790 objects as of 19-Apr-2024
HD Live streaming from Space Station
objects crossing your sky now

COSMOS 2160

Track COSMOS 2160 now!
10-day predictions
COSMOS 2160 is classified as:


NORAD ID: 21731
Int'l Code: 1991-068D
Perigee: 1,403.8 km
Apogee: 1,417.9 km
Inclination: 82.6 °
Period: 113.9 minutes
Semi major axis: 7781 km
RCS: 1.112 m2 (large)
Launch date: September 28, 1991
Source: Commonwealth of Independent States (former USSR) (CIS)
Launch site: PLESETSK MISSILE AND SPACE COMPLEX (PKMTR)
Your satellite tracking list
Your tracking list is empty




NASA's NSSDC Master Catalog

Two Line Element Set (TLE):
1 21731U 91068D   24109.91591334  .00000063  00000-0  28198-3 0  9999
2 21731  82.5826  89.6146 0009070  15.6048  45.0661 12.64671998502766
Source of the keplerian elements: AFSPC